| time (UTC) | temp C | wind direction | speed KPH | gust KPH | rain 1hr cm | rain 24hr cm | rain mn cm | humidity % | barometer mb |
| 20260504150825 | 21 | 215 | 1.6 | 9.7 | 0.00 | 0.00 | 0.00 | 34 | 1014.8 |
| 20260504150322 | 21 | 213 | 3.2 | 11.3 | 0.00 | 0.00 | 0.00 | 33 | 1014.8 |
| 20260504141252 | 19 | 236 | 3.2 | 3.2 | 0.00 | 0.00 | 0.00 | 36 | 1014.9 |
| 20260504140749 | 20 | 210 | 1.6 | 3.2 | 0.00 | 0.00 | 0.00 | 36 | 1015.0 |
| 20260504140244 | 20 | 211 | 3.2 | 4.8 | 0.00 | 0.00 | 0.00 | 37 | 1014.8 |
| 20260504130713 | 15 | 234 | 0.0 | 4.8 | 0.00 | 0.00 | 0.00 | 48 | 1015.5 |
| 20260504130209 | 15 | 220 | 3.2 | 4.8 | 0.00 | 0.00 | 0.00 | 48 | 1015.4 |
| 20260504120133 | 12 | 188 | 1.6 | 3.2 | 0.00 | 0.00 | 0.00 | 56 | 1015.7 |
| 20260504110600 | 10 | 214 | 1.6 | 1.6 | 0.00 | 0.00 | 0.00 | 61 | 1015.9 |
| 20260504100522 | 10 | 203 | 0.0 | 0.0 | 0.00 | 0.00 | 0.00 | 62 | 1015.8 |
| 20260504081915 | 10 | 183 | 1.6 | 4.8 | 0.00 | 0.00 | 0.00 | 63 | 1015.9 |
| 20260504081412 | 10 | 165 | 3.2 | 3.2 | 0.00 | 0.00 | 0.00 | 63 | 1016.1 |
| 20260504080908 | 10 | 190 | 1.6 | 3.2 | 0.00 | 0.00 | 0.00 | 63 | 1016.3 |
| 20260504080405 | 10 | 190 | 1.6 | 1.6 | 0.00 | 0.00 | 0.00 | 64 | 1016.3 |
| 20260504070333 | 10 | 209 | 0.0 | 0.0 | 0.00 | 0.00 | 0.00 | 56 | 1016.3 |
| 20260504050721 | 8 | 200 | 0.0 | 0.0 | 0.00 | 0.00 | 0.00 | 64 | 1016.6 |
| 20260504050218 | 7 | 200 | 0.0 | 0.0 | 0.00 | 0.00 | 0.00 | 65 | 1016.6 |
| 20260504045715 | 7 | 200 | 0.0 | 0.0 | 0.00 | 0.00 | 0.00 | 66 | 1016.6 |
| 20260504045215 | 7 | 200 | 0.0 | 0.0 | 0.00 | 0.00 | 0.00 | 66 | 1016.8 |
| 20260504044713 | 7 | 200 | 0.0 | 0.0 | 0.00 | 0.00 | 0.00 | 67 | 1016.6 |
| 20260504044210 | 6 | 200 | 0.0 | 0.0 | 0.00 | 0.00 | 0.00 | 67 | 1016.7 |
| 20260504043707 | 6 | 200 | 0.0 | 0.0 | 0.00 | 0.00 | 0.00 | 67 | 1016.6 |
| 20260504043204 | 6 | 200 | 0.0 | 0.0 | 0.00 | 0.00 | 0.00 | 68 | 1016.6 |
| 20260504042702 | 6 | 200 | 0.0 | 0.0 | 0.00 | 0.00 | 0.00 | 67 | 1016.5 |
| 20260504042158 | 6 | 200 | 0.0 | 0.0 | 0.00 | 0.00 | 0.00 | 66 | 1016.5 |
| 20260504041654 | 6 | 200 | 0.0 | 0.0 | 0.00 | 0.00 | 0.00 | 67 | 1016.8 |
| 20260504041150 | 6 | 200 | 0.0 | 0.0 | 0.00 | 0.00 | 0.00 | 68 | 1016.6 |
| 20260504040647 | 6 | 200 | 0.0 | 0.0 | 0.00 | 0.00 | 0.00 | 68 | 1016.6 |
| 20260504040144 | 6 | 200 | 0.0 | 0.0 | 0.00 | 0.00 | 0.00 | 68 | 1016.6 |
| 20260504035641 | 6 | 200 | 0.0 | 0.0 | 0.00 | 0.00 | 0.00 | 67 | 1016.7 |
| 20260504035137 | 6 | 200 | 0.0 | 0.0 | 0.00 | 0.00 | 0.00 | 69 | 1016.7 |
| 20260504034635 | 6 | 200 | 0.0 | 0.0 | 0.00 | 0.00 | 0.00 | 68 | 1016.6 |
| 20260504034132 | 6 | 200 | 0.0 | 0.0 | 0.00 | 0.00 | 0.00 | 68 | 1016.6 |
| 20260504033630 | 6 | 200 | 0.0 | 0.0 | 0.00 | 0.00 | 0.00 | 68 | 1016.7 |
| 20260504033127 | 6 | 200 | 0.0 | 0.0 | 0.00 | 0.00 | 0.00 | 67 | 1016.7 |
| 20260504032624 | 7 | 201 | 0.0 | 0.0 | 0.00 | 0.00 | 0.00 | 68 | 1016.6 |
| 20260504032120 | 7 | 198 | 0.0 | 0.0 | 0.00 | 0.00 | 0.00 | 68 | 1016.5 |
| 20260504031618 | 7 | 198 | 0.0 | 0.0 | 0.00 | 0.00 | 0.00 | 68 | 1016.5 |
| 20260504031113 | 7 | 198 | 0.0 | 0.0 | 0.00 | 0.00 | 0.00 | 68 | 1016.4 |
| 20260504030611 | 7 | 214 | 0.0 | 0.0 | 0.00 | 0.00 | 0.00 | 68 | 1016.4 |
| 20260504030107 | 7 | 220 | 0.0 | 0.0 | 0.00 | 0.00 | 0.00 | 67 | 1016.3 |
| 20260504025604 | 7 | 220 | 0.0 | 0.0 | 0.00 | 0.00 | 0.00 | 67 | 1016.4 |
| 20260504025101 | 7 | 215 | 0.0 | 0.0 | 0.00 | 0.00 | 0.00 | 66 | 1016.4 |
| 20260504024559 | 7 | 215 | 0.0 | 0.0 | 0.00 | 0.00 | 0.00 | 66 | 1016.2 |
| 20260504024055 | 7 | 213 | 0.0 | 0.0 | 0.00 | 0.00 | 0.00 | 65 | 1016.3 |
| 20260504023552 | 7 | 213 | 0.0 | 0.0 | 0.00 | 0.00 | 0.00 | 64 | 1016.2 |
| 20260504023048 | 7 | 213 | 0.0 | 0.0 | 0.00 | 0.00 | 0.00 | 63 | 1016.2 |
| 20260504022544 | 8 | 213 | 0.0 | 0.0 | 0.00 | 0.00 | 0.00 | 62 | 1016.2 |
| 20260504022040 | 8 | 213 | 0.0 | 0.0 | 0.00 | 0.00 | 0.00 | 62 | 1016.1 |
| 20260504021538 | 8 | 213 | 0.0 | 0.0 | 0.00 | 0.00 | 0.00 | 62 | 1016.1 |
| 20260504021034 | 8 | 213 | 0.0 | 0.0 | 0.00 | 0.00 | 0.00 | 62 | 1015.9 |
| 20260504020531 | 8 | 213 | 0.0 | 0.0 | 0.00 | 0.00 | 0.00 | 61 | 1016.1 |
| 20260504020028 | 8 | 213 | 0.0 | 0.0 | 0.00 | 0.00 | 0.00 | 60 | 1015.8 |
| 20260504015524 | 8 | 213 | 0.0 | 0.0 | 0.00 | 0.00 | 0.00 | 59 | 1015.9 |
| 20260504015020 | 9 | 213 | 0.0 | 0.0 | 0.00 | 0.00 | 0.00 | 58 | 1015.9 |
| 20260504014517 | 9 | 203 | 0.0 | 0.0 | 0.00 | 0.00 | 0.00 | 57 | 1015.8 |
| 20260504014014 | 9 | 200 | 0.0 | 0.0 | 0.00 | 0.00 | 0.00 | 55 | 1015.8 |
| 20260504013512 | 10 | 191 | 0.0 | 0.0 | 0.00 | 0.00 | 0.00 | 54 | 1015.8 |
| 20260504013009 | 10 | 195 | 0.0 | 0.0 | 0.00 | 0.00 | 0.00 | 54 | 1015.8 |
| 20260504012506 | 10 | 195 | 0.0 | 0.0 | 0.00 | 0.00 | 0.00 | 53 | 1015.7 |
| 20260504012004 | 10 | 201 | 0.0 | 0.0 | 0.00 | 0.00 | 0.00 | 52 | 1015.7 |
| 20260504011500 | 10 | 215 | 0.0 | 0.0 | 0.00 | 0.00 | 0.00 | 50 | 1015.7 |
| 20260504010955 | 10 | 215 | 0.0 | 0.0 | 0.00 | 0.00 | 0.00 | 51 | 1015.8 |
| 20260504010452 | 10 | 216 | 0.0 | 0.0 | 0.00 | 0.00 | 0.00 | 49 | 1015.6 |
| 20260504005948 | 11 | 218 | 0.0 | 0.0 | 0.00 | 0.00 | 0.00 | 46 | 1015.5 |
| 20260504005445 | 11 | 218 | 0.0 | 0.0 | 0.00 | 0.00 | 0.00 | 45 | 1015.6 |
| 20260504004942 | 11 | 218 | 0.0 | 0.0 | 0.00 | 0.00 | 0.00 | 45 | 1015.6 |
| 20260504004440 | 12 | 220 | 0.0 | 0.0 | 0.00 | 0.00 | 0.00 | 44 | 1015.4 |
| 20260504003937 | 12 | 211 | 0.0 | 0.0 | 0.00 | 0.00 | 0.00 | 42 | 1015.5 |
| 20260504003433 | 12 | 192 | 0.0 | 0.0 | 0.00 | 0.00 | 0.00 | 39 | 1015.4 |
| 20260504002930 | 13 | 182 | 0.0 | 0.0 | 0.00 | 0.00 | 0.00 | 38 | 1015.3 |
| 20260504002427 | 13 | 194 | 0.0 | 0.0 | 0.00 | 0.00 | 0.00 | 37 | 1015.3 |
| 20260504001924 | 13 | 199 | 0.0 | 0.0 | 0.00 | 0.00 | 0.00 | 36 | 1015.4 |
| 20260504001422 | 13 | 202 | 0.0 | 0.0 | 0.00 | 0.00 | 0.00 | 35 | 1015.4 |
| 20260504000918 | 13 | 200 | 0.0 | 0.0 | 0.00 | 0.00 | 0.00 | 36 | 1015.1 |
| 20260504000416 | 14 | 200 | 0.0 | 0.0 | 0.00 | 0.00 | 0.00 | 35 | 1015.1 |
| 20260503235913 | 14 | 222 | 0.0 | 0.0 | 0.00 | 0.00 | 0.00 | 35 | 1015.0 |
| 20260503235410 | 15 | 231 | 1.6 | 4.8 | 0.00 | 0.00 | 0.00 | 33 | 1015.1 |
| 20260503234908 | 15 | 233 | 0.0 | 0.0 | 0.00 | 0.00 | 0.00 | 35 | 1015.0 |
| 20260503234405 | 15 | 246 | 1.6 | 3.2 | 0.00 | 0.00 | 0.00 | 32 | 1014.9 |
| 20260503233903 | 15 | 193 | 0.0 | 3.2 | 0.00 | 0.00 | 0.00 | 34 | 1015.0 |
| 20260503233359 | 15 | 221 | 0.0 | 1.6 | 0.00 | 0.00 | 0.00 | 34 | 1015.1 |
| 20260503232855 | 15 | 184 | 1.6 | 3.2 | 0.00 | 0.00 | 0.00 | 35 | 1015.1 |
| 20260503232353 | 15 | 194 | 0.0 | 1.6 | 0.00 | 0.00 | 0.00 | 33 | 1014.9 |
| 20260503231850 | 16 | 206 | 0.0 | 3.2 | 0.00 | 0.00 | 0.00 | 32 | 1014.9 |
| 20260503231347 | 16 | 236 | 1.6 | 3.2 | 0.00 | 0.00 | 0.00 | 30 | 1014.9 |
| 20260503230843 | 17 | 229 | 0.0 | 3.2 | 0.00 | 0.00 | 0.00 | 31 | 1014.7 |
| 20260503230340 | 17 | 248 | 3.2 | 4.8 | 0.00 | 0.00 | 0.00 | 29 | 1014.6 |
| 20260503225838 | 17 | 279 | 3.2 | 9.7 | 0.00 | 0.00 | 0.00 | 29 | 1014.8 |
| 20260503225333 | 18 | 218 | 1.6 | 6.4 | 0.00 | 0.00 | 0.00 | 28 | 1014.8 |
| 20260503224830 | 18 | 347 | 1.6 | 3.2 | 0.00 | 0.00 | 0.00 | 28 | 1014.7 |
| 20260503224328 | 18 | 217 | 0.0 | 4.8 | 0.00 | 0.00 | 0.00 | 28 | 1014.7 |
| 20260503223825 | 18 | 293 | 1.6 | 3.2 | 0.00 | 0.00 | 0.00 | 28 | 1014.7 |
| 20260503223322 | 17 | 201 | 0.0 | 1.6 | 0.00 | 0.00 | 0.00 | 29 | 1014.9 |
| 20260503222818 | 17 | 227 | 6.4 | 12.9 | 0.00 | 0.00 | 0.00 | 28 | 1014.8 |
| 20260503222317 | 17 | 39 | 1.6 | 12.9 | 0.00 | 0.00 | 0.00 | 28 | 1014.8 |
| 20260503221815 | 17 | 296 | 6.4 | 14.5 | 0.00 | 0.00 | 0.00 | 27 | 1014.8 |
| 20260503221313 | 18 | 298 | 3.2 | 6.4 | 0.00 | 0.00 | 0.00 | 29 | 1014.9 |
| 20260503220808 | 17 | 208 | 1.6 | 4.8 | 0.00 | 0.00 | 0.00 | 28 | 1014.7 |
| 20260503220306 | 17 | 230 | 1.6 | 9.7 | 0.00 | 0.00 | 0.00 | 28 | 1014.8 |
| 20260503215802 | 17 | 215 | 0.0 | 4.8 | 0.00 | 0.00 | 0.00 | 29 | 1014.9 |
| 20260503215259 | 17 | 257 | 4.8 | 11.3 | 0.00 | 0.00 | 0.00 | 27 | 1014.9 |
| 20260503214757 | 17 | 274 | 6.4 | 11.3 | 0.00 | 0.00 | 0.00 | 27 | 1015.1 |
| 20260503214254 | 17 | 229 | 1.6 | 3.2 | 0.00 | 0.00 | 0.00 | 30 | 1014.9 |
| 20260503213752 | 17 | 340 | 8.0 | 12.9 | 0.00 | 0.00 | 0.00 | 28 | 1015.1 |
| 20260503213249 | 17 | 239 | 3.2 | 11.3 | 0.00 | 0.00 | 0.00 | 29 | 1014.9 |
| 20260503212746 | 17 | 295 | 1.6 | 4.8 | 0.00 | 0.00 | 0.00 | 29 | 1015.2 |
| 20260503212244 | 17 | 190 | 0.0 | 3.2 | 0.00 | 0.00 | 0.00 | 30 | 1015.0 |
| 20260503211741 | 17 | 143 | 3.2 | 11.3 | 0.00 | 0.00 | 0.00 | 29 | 1015.1 |
| 20260503211237 | 17 | 179 | 6.4 | 11.3 | 0.00 | 0.00 | 0.00 | 28 | 1014.9 |
| 20260503210732 | 17 | 22 | 1.6 | 4.8 | 0.00 | 0.00 | 0.00 | 29 | 1015.2 |
| 20260503210230 | 17 | 334 | 6.4 | 11.3 | 0.00 | 0.00 | 0.00 | 28 | 1015.2 |
| 20260503205725 | 17 | 277 | 8.0 | 14.5 | 0.00 | 0.00 | 0.00 | 28 | 1015.1 |
| 20260503205222 | 17 | 260 | 14.5 | 22.5 | 0.00 | 0.00 | 0.00 | 28 | 1015.3 |
| 20260503204718 | 17 | 249 | 6.4 | 11.3 | 0.00 | 0.00 | 0.00 | 29 | 1015.2 |
| 20260503204216 | 17 | 322 | 6.4 | 9.7 | 0.00 | 0.00 | 0.00 | 28 | 1015.1 |
| 20260503203713 | 17 | 186 | 3.2 | 11.3 | 0.00 | 0.00 | 0.00 | 30 | 1015.2 |
| 20260503203211 | 17 | 282 | 4.8 | 11.3 | 0.00 | 0.00 | 0.00 | 29 | 1015.1 |
| 20260503202708 | 17 | 36 | 1.6 | 9.7 | 0.00 | 0.00 | 0.00 | 31 | 1015.2 |
| 20260503202206 | 17 | 261 | 0.0 | 3.2 | 0.00 | 0.00 | 0.00 | 31 | 1015.2 |
| 20260503201703 | 17 | 247 | 3.2 | 4.8 | 0.00 | 0.00 | 0.00 | 31 | 1015.4 |
| 20260503201200 | 17 | 218 | 4.8 | 6.4 | 0.00 | 0.00 | 0.00 | 31 | 1015.5 |
| 20260503200656 | 17 | 4 | 4.8 | 12.9 | 0.00 | 0.00 | 0.00 | 30 | 1015.6 |
| 20260503200153 | 17 | 273 | 4.8 | 12.9 | 0.00 | 0.00 | 0.00 | 29 | 1015.8 |
| 20260503195650 | 17 | 87 | 1.6 | 6.4 | 0.00 | 0.00 | 0.00 | 31 | 1015.8 |
| 20260503195147 | 17 | 38 | 3.2 | 9.7 | 0.00 | 0.00 | 0.00 | 33 | 1015.8 |
| 20260503194644 | 16 | 217 | 1.6 | 11.3 | 0.00 | 0.00 | 0.00 | 32 | 1015.8 |
| 20260503194139 | 17 | 25 | 4.8 | 14.5 | 0.00 | 0.00 | 0.00 | 30 | 1015.7 |
| 20260503193637 | 16 | 244 | 0.0 | 9.7 | 0.00 | 0.00 | 0.00 | 31 | 1015.9 |
| 20260503193132 | 16 | 332 | 9.7 | 12.9 | 0.00 | 0.00 | 0.00 | 33 | 1016.2 |
| 20260503192628 | 16 | 290 | 8.0 | 20.9 | 0.00 | 0.00 | 0.00 | 30 | 1016.1 |
| 20260503192123 | 16 | 278 | 1.6 | 11.3 | 0.00 | 0.00 | 0.00 | 33 | 1016.1 |
| 20260503191621 | 15 | 214 | 4.8 | 12.9 | 0.00 | 0.00 | 0.00 | 33 | 1016.2 |
| 20260503191118 | 15 | 328 | 17.7 | 24.1 | 0.00 | 0.00 | 0.00 | 32 | 1016.3 |
| 20260503190615 | 15 | 332 | 1.6 | 4.8 | 0.00 | 0.00 | 0.00 | 34 | 1016.6 |
| 20260503190112 | 15 | 327 | 4.8 | 16.1 | 0.00 | 0.00 | 0.00 | 33 | 1016.7 |
| 20260503185608 | 16 | 258 | 4.8 | 9.7 | 0.00 | 0.00 | 0.00 | 32 | 1016.8 |
| 20260503185108 | 16 | 254 | 1.6 | 22.5 | 0.00 | 0.00 | 0.00 | 33 | 1016.5 |
| 20260503184603 | 16 | 341 | 3.2 | 6.4 | 0.00 | 0.00 | 0.00 | 35 | 1016.8 |
| 20260503184100 | 16 | 193 | 3.2 | 6.4 | 0.00 | 0.00 | 0.00 | 33 | 1016.8 |
| 20260503183557 | 15 | 246 | 3.2 | 4.8 | 0.00 | 0.00 | 0.00 | 35 | 1016.8 |
| 20260503183054 | 15 | 273 | 4.8 | 9.7 | 0.00 | 0.00 | 0.00 | 34 | 1016.9 |
| 20260503182553 | 16 | 243 | 3.2 | 12.9 | 0.00 | 0.00 | 0.00 | 35 | 1017.0 |
| 20260503182050 | 16 | 3 | 4.8 | 6.4 | 0.00 | 0.00 | 0.00 | 33 | 1016.8 |
| 20260503181547 | 16 | 269 | 3.2 | 11.3 | 0.00 | 0.00 | 0.00 | 35 | 1017.0 |
| 20260503181043 | 16 | 49 | 6.4 | 12.9 | 0.00 | 0.00 | 0.00 | 35 | 1017.0 |
| 20260503180541 | 16 | 290 | 4.8 | 6.4 | 0.00 | 0.00 | 0.00 | 37 | 1016.9 |
| 20260503180038 | 15 | 61 | 4.8 | 14.5 | 0.00 | 0.00 | 0.00 | 34 | 1017.2 |
| 20260503175535 | 15 | 296 | 1.6 | 11.3 | 0.00 | 0.00 | 0.00 | 35 | 1017.2 |
| 20260503175033 | 14 | 138 | 3.2 | 6.4 | 0.00 | 0.00 | 0.00 | 36 | 1017.0 |
| 20260503174530 | 15 | 266 | 4.8 | 17.7 | 0.00 | 0.00 | 0.00 | 34 | 1017.1 |
| 20260503174026 | 15 | 182 | 3.2 | 12.9 | 0.00 | 0.00 | 0.00 | 34 | 1017.1 |
| 20260503173521 | 14 | 322 | 6.4 | 9.7 | 0.00 | 0.00 | 0.00 | 36 | 1017.3 |
| 20260503173017 | 15 | 69 | 4.8 | 24.1 | 0.00 | 0.00 | 0.00 | 35 | 1017.2 |
| 20260503172515 | 14 | 289 | 3.2 | 17.7 | 0.00 | 0.00 | 0.00 | 34 | 1017.2 |
| 20260503172012 | 14 | 220 | 9.7 | 14.5 | 0.00 | 0.00 | 0.00 | 35 | 1017.4 |
| 20260503171509 | 14 | 264 | 6.4 | 17.7 | 0.00 | 0.00 | 0.00 | 35 | 1017.4 |
| 20260503171006 | 15 | 14 | 3.2 | 16.1 | 0.00 | 0.00 | 0.00 | 34 | 1017.6 |
| 20260503170502 | 15 | 256 | 3.2 | 6.4 | 0.00 | 0.00 | 0.00 | 35 | 1017.3 |